GPS III SV06

operational
NORAD ID: 55268 Int'l Des: 2023-009 Owner: SFSSC Country: US Constellation: GPS
MEOCIRCULARGNSS

关于 GPS III SV06

正在加载描述...

实时位置

正在加载3D地球...

即将过境

高度历史

Altitude vs Time

uPlot chart will show altitude changes over time

两行轨道根数

1 55268U 23009A 25297.38516853 .00000048 00000-0 00000+0 0 9995
2 55268 55.0983 157.7846 0003636 358.3204 189.3237 2.00559869 20514
Epoch: Oct 24, 2025 • Age: 31 hours

当前状态

高度 20178.6 km
速度 3.88 km/s
星下点 34.98°N, 93.08°W
发射日期 Jan 18, 2023
运行时间 2.7 years
类型 navigation

技术详情

分类 Payload
质量 4352.00 kg
干质量 2160.00 kg
总质量 4352.00 kg
长度 3.40 m
直径 1.80 m
跨度 14.00 m
形状 Box + 2 pan
制造商 LMSSD
平台类型 A2100
阶段状态 In Orbit
所有者/国家 SFSSC/US

大型星座

Loading constellations...